• In India
  • List of Countries
  • For 7 days
  • Water Temperature
  • Satellite Maps
  • Weather Map
  • Weather Widgets
  • user-avatar
    Login

    Hourly Weather Berat

    Today, 19 January, Friday

    Time Temperature Precipitation Wind Pressure Humidity
    00:00 +4°C° 0 mm 2 mps 746 mmHg 55%
    01:00 +4°C° 0 mm 2 mps 746 mmHg 59%
    02:00 +4°C° 0 mm 2 mps 746 mmHg 61%
    03:00 +3°C° 0 mm 3 mps 746 mmHg 63%
    04:00 +3°C° 0 mm 3 mps 745 mmHg 65%
    05:00 +3°C° 0 mm 3 mps 745 mmHg 65%
    06:00 +3°C° 0 mm 3 mps 745 mmHg 65%
    07:00 +3°C° 0 mm 4 mps 745 mmHg 66%
    08:00 +5°C° 0 mm 4 mps 745 mmHg 65%
    09:00 +7°C° 0 mm 3 mps 745 mmHg 64%
    10:00 +9°C° 0 mm 3 mps 745 mmHg 63%
    11:00 +10°C° 0 mm 3 mps 745 mmHg 63%
    12:00 +11°C° 0 mm 3 mps 745 mmHg 62%
    13:00 +12°C° 0 mm 3 mps 744 mmHg 62%
    14:00 +11°C° 0 mm 3 mps 744 mmHg 67%
    15:00 +11°C° 0 mm 3 mps 744 mmHg 71%
    16:00 +10°C° 0 mm 3 mps 744 mmHg 76%
    17:00 +9°C° 0 mm 3 mps 744 mmHg 79%
    18:00 +7°C° 0 mm 4 mps 744 mmHg 82%
    19:00 +6°C° 0 mm 4 mps 744 mmHg 85%
    20:00 +6°C° 0 mm 4 mps 743 mmHg 86%
    21:00 +6°C° 0 mm 4 mps 743 mmHg 86%
    22:00 +6°C° 0 mm 4 mps 743 mmHg 87%
    23:00 +6°C° 0 mm 4 mps 743 mmHg 87%

    Tomorrow, 20 January, Saturday

    Time Temperature Precipitation Wind Pressure Humidity
    00:00 +6°C° 0 mm 4 mps 743 mmHg 88%
    01:00 +6°C° 0 mm 4 mps 743 mmHg 88%
    02:00 +7°C° 0 mm 4 mps 743 mmHg 89%
    03:00 +7°C° 0 mm 4 mps 742 mmHg 89%
    04:00 +7°C° 0 mm 4 mps 742 mmHg 89%
    05:00 +7°C° 0 mm 4 mps 742 mmHg 89%
    06:00 +7°C° 0 mm 4 mps 742 mmHg 90%
    07:00 +7°C° 0 mm 4 mps 741 mmHg 90%
    08:00 +8°C° 0.1 mm 4 mps 741 mmHg 87%
    09:00 +10°C° 0.1 mm 4 mps 741 mmHg 85%
    10:00 +11°C° 0.1 mm 4 mps 741 mmHg 82%
    11:00 +12°C° 0.6 mm 4 mps 741 mmHg 82%
    12:00 +12°C° 0.6 mm 4 mps 740 mmHg 82%
    13:00 +12°C° 0.6 mm 4 mps 740 mmHg 82%
    14:00 +12°C° 0.8 mm 4 mps 740 mmHg 84%
    15:00 +11°C° 0.8 mm 4 mps 740 mmHg 86%
    16:00 +11°C° 0.8 mm 4 mps 740 mmHg 88%
    17:00 +10°C° 0.6 mm 3 mps 740 mmHg 90%
    18:00 +9°C° 0.6 mm 2 mps 741 mmHg 91%
    19:00 +10°C° 0.6 mm 1 mps 741 mmHg 92%
    20:00 +10°C° 0.1 mm 1 mps 741 mmHg 92%
    21:00 +9°C° 0.1 mm 1 mps 742 mmHg 93%
    22:00 +9°C° 0.1 mm 1 mps 742 mmHg 93%
    23:00 +9°C° 0 mm 1 mps 742 mmHg 93%

    Day after tomorrow, 21 January, Sunday

    Time Temperature Precipitation Wind Pressure Humidity
    00:00 +9°C° 0 mm 1 mps 742 mmHg 93%
    01:00 +8°C° 0 mm 1 mps 741 mmHg 92%
    02:00 +7°C° 0 mm 2 mps 741 mmHg 92%
    03:00 +7°C° 0 mm 2 mps 741 mmHg 91%
    04:00 +7°C° 0 mm 2 mps 740 mmHg 90%
    05:00 +7°C° 0.1 mm 2 mps 740 mmHg 90%
    06:00 +7°C° 0.1 mm 3 mps 740 mmHg 89%
    07:00 +7°C° 0.1 mm 3 mps 739 mmHg 89%
    08:00 +8°C° 0.5 mm 3 mps 739 mmHg 88%
    09:00 +8°C° 0.5 mm 3 mps 739 mmHg 86%
    10:00 +9°C° 0.5 mm 3 mps 739 mmHg 84%
    11:00 +9°C° 0.5 mm 2 mps 739 mmHg 84%
    12:00 +9°C° 0.5 mm 2 mps 738 mmHg 84%
    13:00 +11°C° 0.5 mm 1 mps 738 mmHg 84%
    14:00 +10°C° 0.3 mm 2 mps 738 mmHg 86%
    15:00 +9°C° 0.3 mm 2 mps 738 mmHg 88%
    16:00 +9°C° 0.3 mm 2 mps 738 mmHg 90%
    17:00 +10°C° 0 mm 1 mps 738 mmHg 91%
    18:00 +9°C° 0 mm 1 mps 739 mmHg 93%
    19:00 +8°C° 0 mm 1 mps 739 mmHg 94%
    20:00 +8°C° 0 mm 1 mps 739 mmHg 94%
    21:00 +8°C° 0 mm 1 mps 740 mmHg 93%
    22:00 +7°C° 0 mm 1 mps 740 mmHg 92%
    23:00 +7°C° 0 mm 1 mps 740 mmHg 93%

    22 January, Monday

    Time Temperature Precipitation Wind Pressure Humidity
    00:00 +7°C° 0 mm 1 mps 740 mmHg 93%
    01:00 +7°C° 0 mm 1 mps 740 mmHg 93%
    02:00 +6°C° 0 mm 1 mps 740 mmHg 92%
    03:00 +6°C° 0 mm 1 mps 741 mmHg 92%
    04:00 +6°C° 0 mm 1 mps 741 mmHg 92%
    05:00 +6°C° 0 mm 1 mps 741 mmHg 91%
    06:00 +6°C° 0 mm 1 mps 742 mmHg 90%
    07:00 +6°C° 0 mm 1 mps 742 mmHg 89%
    08:00 +7°C° 0 mm 1 mps 743 mmHg 82%
    09:00 +8°C° 0 mm 1 mps 743 mmHg 75%
    10:00 +9°C° 0 mm 2 mps 743 mmHg 68%
    11:00 +9°C° 0 mm 2 mps 744 mmHg 62%
    12:00 +10°C° 0 mm 3 mps 744 mmHg 57%
    13:00 +10°C° 0 mm 3 mps 744 mmHg 51%
    14:00 +10°C° 0 mm 3 mps 744 mmHg 53%
    15:00 +9°C° 0 mm 2 mps 744 mmHg 56%
    16:00 +9°C° 0 mm 2 mps 744 mmHg 58%
    17:00 +8°C° 0 mm 2 mps 745 mmHg 61%
    18:00 +7°C° 0 mm 2 mps 745 mmHg 63%
    19:00 +6°C° 0 mm 2 mps 746 mmHg 66%
    20:00 +6°C° 0 mm 2 mps 746 mmHg 67%
    21:00 +5°C° 0 mm 2 mps 746 mmHg 68%
    22:00 +5°C° 0 mm 2 mps 746 mmHg 69%
    23:00 +5°C° 0 mm 2 mps 746 mmHg 70%

    23 January, Tuesday

    Time Temperature Precipitation Wind Pressure Humidity
    00:00 +5°C° 0 mm 2 mps 746 mmHg 70%
    01:00 +5°C° 0 mm 2 mps 746 mmHg 70%
    02:00 +6°C° 0 mm 1 mps 746 mmHg 69%
    03:00 +6°C° 0 mm 1 mps 746 mmHg 68%
    04:00 +6°C° 0 mm 1 mps 746 mmHg 66%
    05:00 +7°C° 0 mm 1 mps 747 mmHg 65%
    06:00 +7°C° 0 mm 1 mps 747 mmHg 64%
    07:00 +7°C° 0 mm 1 mps 747 mmHg 62%
    08:00 +8°C° 0 mm 1 mps 748 mmHg 58%
    09:00 +9°C° 0 mm 1 mps 748 mmHg 54%
    10:00 +11°C° 0 mm 1 mps 748 mmHg 50%
    11:00 +11°C° 0 mm 1 mps 748 mmHg 49%
    12:00 +12°C° 0 mm 1 mps 748 mmHg 48%
    13:00 +12°C° 0 mm 1 mps 748 mmHg 46%
    14:00 +12°C° 0 mm 1 mps 748 mmHg 52%
    15:00 +11°C° 0 mm 1 mps 748 mmHg 57%
    16:00 +10°C° 0 mm 1 mps 749 mmHg 63%
    17:00 +9°C° 0 mm 1 mps 749 mmHg 65%
    18:00 +8°C° 0 mm 1 mps 750 mmHg 67%
    19:00 +7°C° 0 mm 1 mps 750 mmHg 68%
    20:00 +7°C° 0 mm 1 mps 751 mmHg 69%
    21:00 +7°C° 0 mm 1 mps 751 mmHg 69%
    22:00 +6°C° 0 mm 2 mps 751 mmHg 69%
    23:00 +6°C° 0 mm 2 mps 752 mmHg 70%

    24 January, Wednesday

    Time Temperature Precipitation Wind Pressure Humidity
    00:00 +6°C° 0 mm 2 mps 752 mmHg 71%
    01:00 +5°C° 0 mm 2 mps 752 mmHg 72%
    02:00 +5°C° 0 mm 2 mps 752 mmHg 72%
    03:00 +5°C° 0 mm 2 mps 752 mmHg 72%
    04:00 +5°C° 0 mm 2 mps 753 mmHg 72%
    05:00 +5°C° 0 mm 2 mps 753 mmHg 72%
    06:00 +5°C° 0 mm 2 mps 753 mmHg 72%
    07:00 +5°C° 0 mm 2 mps 754 mmHg 73%
    08:00 +7°C° 0 mm 2 mps 754 mmHg 67%
    09:00 +8°C° 0 mm 2 mps 754 mmHg 62%
    10:00 +10°C° 0 mm 2 mps 754 mmHg 57%
    11:00 +12°C° 0 mm 2 mps 754 mmHg 54%
    12:00 +13°C° 0 mm 2 mps 754 mmHg 51%
    13:00 +14°C° 0 mm 2 mps 754 mmHg 48%
    14:00 +13°C° 0 mm 2 mps 754 mmHg 52%
    15:00 +12°C° 0 mm 2 mps 754 mmHg 57%
    16:00 +12°C° 0 mm 2 mps 754 mmHg 62%
    17:00 +10°C° 0 mm 2 mps 754 mmHg 65%
    18:00 +8°C° 0 mm 2 mps 754 mmHg 68%
    19:00 +7°C° 0 mm 2 mps 755 mmHg 71%
    20:00 +7°C° 0 mm 2 mps 755 mmHg 71%
    21:00 +7°C° 0 mm 2 mps 755 mmHg 71%
    22:00 +6°C° 0 mm 2 mps 755 mmHg 71%
    23:00 +6°C° 0 mm 2 mps 755 mmHg 70%
    Show more